Regional Weather Roundup
Issued by NWS

Home | Current Version | Previous Version | Graphics & Text | Print | Product List | Glossary On
Versions: 1 2 3 4 5 6 7 8 9 10 11 12 13 14 15 16 17 18 19 20 21 22 23 24 25 26 27 28 29 30 31 32 33 34 35 36 37 38 39 40 41 42 43 44 45 46 47 48 49 50
000
ASUS43 KMKX 071111
RWRWI

WISCONSIN REGIONAL WEATHER ROUNDUP
NATIONAL WEATHER SERVICE MILWAUKEE/SULLIVAN WI
600 AM CDT TUE JUL 07 2015

NOTE: "FAIR" INDICATES FEW OR NO CLOUDS BELOW 12,000 FEET WITH NO
SIGNIFICANT WEATHER AND/OR OBSTRUCTIONS TO VISIBILITY.

WIZ001-002-006>008-014>016-023>028-071200-
NORTHWEST WISCONSIN

CITY           SKY/WX    TMP DP  RH WIND       PRES   REMARKS
SUPERIOR ARPT  CLOUDY    55  46  72 N8        30.11R
ASHLAND        CLOUDY    53  48  83 NW6       30.08R
HAYWARD        CLOUDY    53  44  71 N8        30.09R
SIREN          CLOUDY    54  45  71 N7        30.12R
CUMBERLAND     CLOUDY    50  46  87 N7        30.10R
RICE LAKE      CLOUDY    50  46  86 CALM      30.11R
CHETEK         CLOUDY    52  47  84 NW6       30.10R
LADYSMITH      CLEAR     49  46  89 NW6       30.09R
EAU CLAIRE     CLEAR     49  45  86 NW5       30.07R
MENOMONIE      CLEAR     52  47  85 NW6       30.09R
NEW RICHMOND   PTCLDY    49  48  97 NW3       30.11R
OSCEOLA        MOCLDY    51  51 100 N6        30.14R
$$

WIZ003>005-009-010-017-018-071200-
NORTH CENTRAL WISCONSIN

CITY           SKY/WX    TMP DP  RH WIND       PRES   REMARKS
MANITOWISH WTR CLOUDY    49  48  96 N6        30.05R
ARBOR VITAE    CLOUDY    52  49  91 N3        30.04R
WOODRUFF       CLOUDY    52  49  91 N3        30.04R
RHINELANDER    CLEAR     49  45  86 N5        30.03R
EAGLE RIVER    CLOUDY    50  46  87 N8        30.03R
LAND O LAKES   CLOUDY    50  45  84 N8        30.04R
PHILLIPS       CLEAR     46  46 100 NW3       30.05R
TOMAHAWK       CLEAR     46  45  95 CALM      30.04R
MEDFORD        CLEAR     48  46  93 N7        30.05R
MERRILL        CLEAR     49  48  97 NW5       30.04R
$$

WIZ029-030-035-036-043>047-071200-
CENTRAL WISCONSIN

CITY           SKY/WX    TMP DP  RH WIND       PRES   REMARKS
WAUSAU         CLEAR     53  48  83 VRB5      30.01R
MOSINEE        CLEAR     52  50  93 NW9       30.02R
MARSHFIELD     CLEAR     52  46  80 N9        30.03R
STEVENS POINT  CLEAR     51  50  95 NW7       30.01R FOG
WAUPACA        CLOUDY    58  57  97 NW3       29.99R FOG
WAUTOMA        PTCLDY    56  56 100 N7        30.00R FOG
WISC RAPIDS    CLEAR     54  49  83 N10       30.02R
CAMP DOUGLAS   CLEAR     55  55 100 N8        30.02R
$$

WIZ011>013-019>022-031-037>040-048>050-071200-
NORTHEAST WISCONSIN

CITY           SKY/WX    TMP DP  RH WIND       PRES   REMARKS
ANTIGO         CLEAR     49  47  92 N8        30.02R
SHAWANO        CLOUDY    59  52  77 NE9       29.99R
OCONTO         CLOUDY    55  48  77 N8        29.97R
STURGEON BAY   CLOUDY    55  46  71 N15G22    29.98R
GREEN BAY      CLOUDY    58  48  69 N13       29.97R
MANITOWOC      CLOUDY    58  53  84 MISG      29.95
APPLETON       CLOUDY    57  52  82 N13       29.97R HAZE
CLINTONVILLE   CLOUDY    57  50  77 NE8       29.98R
OSHKOSH        PTCLDY    60  54  80 N12       29.97R HAZE
$$

WIZ032>034-041-042-053>061-071200-
SOUTHWEST WISCONSIN

CITY           SKY/WX    TMP DP  RH WIND       PRES   REMARKS
LA CROSSE      MOCLDY    57  50  77 N10       30.05R
SPARTA         CLEAR     55  52  91 N8        30.04R
VIROQUA        CLOUDY    57  56  97 N15       30.03R
BOSCOBEL       CLEAR     58  54  86 CALM      30.01R FOG
PRAIRIE DU CHI PTCLDY    58  55  91 CALM      30.02R FOG
PLATTEVILLE    CLOUDY    58  56  96 N9        30.00R
$$

WIZ056-057-062-063-064-067-068-071200-
SOUTH CENTRAL WISCONSIN

CITY           SKY/WX    TMP DP  RH WIND       PRES   REMARKS
REEDSBURG      PTCLDY    56  55  94 N7        30.00R FOG
BARABOO/DELLS  CLOUDY    56  54  91 N7        30.00R FOG
LONE ROCK      MOCLDY    58  54  86 N9        30.01R FOG
MINERAL POINT  PTCLDY    59  55  88 N7        30.00R FOG
MADISON        CLOUDY    60  57  89 N10       29.97R SMOKE
MIDDLETON      CLOUDY    61  58  92 N7        29.98R
WATERTOWN      CLOUDY    59  59 100 N6        29.95R FOG
MONROE         CLOUDY    59  57  94 N8        29.97R FOG
JANESVILLE     CLOUDY    61  61 100 NE14      29.95R FOG
$$

WIZ051-052-058>065-066-070>072-071200-
SOUTHEAST WISCONSIN

CITY           SKY/WX    TMP DP  RH WIND       PRES   REMARKS
MILWAUKEE      CLOUDY    57  55  93 N16G24    29.94R FOG
WAUKESHA       CLOUDY    57  55  94 N5        29.95R
MILWAUKEE/TIMM CLOUDY    55  52  88 NE12G20   29.96R FOG
RACINE         CLOUDY    58  55  90 N16G23    29.95R FOG
BURLINGTON     CLOUDY    58  57  97 N5        29.94R FOG
KENOSHA        CLOUDY    59  56  89 NE18G25   29.93R FOG
FOND DU LAC    CLOUDY    61  57  87 NW10      29.95R FOG
SHEBOYGAN      CLOUDY    58  53  84 N8        29.95R
WEST BEND      LGT RAIN  55  54  94 N14G24    29.95R
JUNEAU         CLOUDY    59  56  91 N7        29.97R FOG
$$

LSZ147-162-071200-
LAKE SUPERIOR

STATION/POSITION TIME  TEMP    WIND        PRES    WAVE
                       AIR SEA DIR/SP/G            HT/PER
                 (UTC) (F)     (DEG/KT/KT) (MB)    (FT/S)
W MID LAKE BUOY  1050   46 39  330/ 10/ 10 1018.0R   1
DEVILS ISLAND    1100   56     320/ 13/ 14 1019.0R
PORT WING        1000   57     330/ 13/ 15 1018.6R
SAXON HARBOR     1000   58     350/ 15/ 18 1017.3R
$$

LMZ867-665-643>646-071200-
LAKE MICHIGAN

STATION/POSITION TIME  TEMP    WIND        PRES    WAVE
                       AIR SEA DIR/SP/G            HT/PER
                 (UTC) (F)     (DEG/KT/KT) (MB)    (FT/S)
CHAMBERS ISLAND  1000   57     330/ 15/ 20 1014.2R
N MID LAKE BUOY  1050   53 52  320/ 14/ 16 1013.0R   3/ 4
NORTHPORT PIER   1000   58     350/ 20/ 23 1013.5R
SISTER BAY       1044   56      20/ 21/ 25   N/A
ALGOMA LAKESHORE 1011           10/  6/  8   N/A
KEWAUNEE LAKESHO 1000   58     360/  8/ 12 1013.0R
SHEBOYGAN LAKESH 1100   56     350/  8/  9 1014.3R
PORT WASHINGTON  1000   59      20/  9/ 15 1013.9R
ATWATER BUOY     1100   58 58   30/ 17/ 21 1015.2R
MILWAUKEE LAKESH 1000   59      10/  9/ 12   N/A
KENOSHA   LAKESH 1100   58      10/ 23/ 29 1013.2R
$$

TC  - TEMPERATURE IN CELSIUS
VSB - VISIBILITY IN STATUTE MILES
WCI - WIND CHILL INDEX
HX  - HEAT INDEX



USA.gov is the U.S. government's official web portal to all federal, state and local government web resources and services.